Location: Qab?lat Awl?d Bin A?mad
(32.8361°N, 13.0722°E)
Time: 07:47:59
(UTC+00:00)

Daily predictions for brighter satellites

Satellite Brightness Start Highest point End
(mag) Time Altitude Azimuth Time Altitude Azimuth Time Altitude Azimuth
Envisat 3.9 16:24:07 10° SE 16:28:15 26° ENE 16:32:24 10° NNE
COSMO-SKYMED 1 3.6 16:25:55 10° NE 16:29:31 25° E 16:33:06 10° SSE
ALOS 4.3 16:26:02 10° SSW 16:30:15 34° W 16:34:30 10° NNW
Cosmos 1633 4.3 16:28:36 10° NE 16:30:27 13° ENE 16:32:18 10° ESE
Sich 1 4.2 16:28:33 10° NNE 16:32:01 23° ENE 16:35:30 10° SE
Cosmos 1356 Rocket 3.5 16:31:19 10° S 16:35:18 52° E 16:39:22 10° NNE
SMAP 3.0 16:33:11 10° SSE 16:37:48 72° ENE 16:42:27 10° N
SeaSat 1 3.3 16:33:49 10° ESE 16:37:57 28° ENE 16:42:05 10° N
GPS 2-04 Rocket1 4.0 16:36:14 10° SSW 16:38:54 21° SSE 16:41:34 10° E
Lacrosse 4 Rocket 1.4 16:40:41 10° SSW 16:44:44 63° ESE 16:48:45 10° NNE
Cosmos 1869 3.3 16:42:31 10° S 16:46:29 86° W 16:50:26 10° N
Cosmos 2219 3.2 16:40:58 10° NNW 16:46:32 63° ENE 16:52:05 10° SSE
Cosmos 2221 4.3 16:43:30 10° SW 16:47:25 35° W 16:51:24 10° NNW
YAOGAN 6 3.9 16:44:58 10° ESE 16:47:31 19° ENE 16:50:03 10° NNE
YAOGAN 1 3.9 16:47:54 10° ESE 16:50:47 18° ENE 16:53:41 10° NNE
Cosmos 1980 Rocket 3.0 16:50:51 10° SSE 16:55:41 30° ESE 17:00:32 10° NE
CORIOLIS 4.2 16:50:46 10° SSE 16:56:09 89° E 17:01:36 10° NNW
CZ-4 R/B 2.4 16:53:19 10° SE 16:56:48 26° ENE 17:00:16 10° NNE
Cosmos 2112 Rocket 4.5 16:52:31 10° SSE 16:57:17 39° E 17:02:05 10° NE
ERBS 4.0 16:56:22 10° WSW 16:59:17 28° NW 17:02:13 10° NNE
NOSS 2-3 (C) 3.5 16:58:38 10° SSW 17:02:50 78° ESE 17:07:28 10° NNE
Cosmos 1680 Rocket 3.6 16:59:24 10° S 17:04:28 56° ESE 17:09:35 10° NNE
Cosmos 1238 Rocket 4.2 17:01:44 10° NNW 17:05:27 37° W 17:08:37 10° SSW
Cosmos 2227 Rocket 2.3 17:00:35 10° N 17:06:09 54° ENE 17:11:38 10° SE
Cosmos 2297 Rocket 2.2 17:00:40 10° NNW 17:06:16 59° ENE 17:11:49 10° SSE
Okean-O 2.6 17:01:54 10° SSE 17:06:19 87° E 17:10:46 10° NNW
CZ-3C R/B 3.2 17:03:35 10° WSW 17:07:30 17° SSW 17:10:12 10° SSE
FengYun 1-2 T 4.4 17:02:19 10° SE 17:07:36 48° ENE 17:12:53 10° N
H-2A R/B 4.2 17:09:56 10° S 17:13:36 42° W 17:17:16 10° NNW
Cosmos 2369 3.8 17:11:01 10° SSW 17:16:39 79° WNW 17:22:22 10° NNE
SKYMED 2 3.6 17:13:22 10° N 17:17:43 82° WNW 17:22:03 10° SSW
Tsikada Rocket 4.3 17:13:36 10° SSE 17:19:33 45° E 17:25:35 10° NNE
Cosmos 1933 4.2 17:22:46 10° SSE 17:25:43 29° ESE 17:25:43 29° ESE
Intelsat 5-3 Rocket 3.9 17:27:37 10° SSW 17:28:02 10° S 17:28:23 10° S
Cosmos 2360 4.1 17:23:39 10° SSW 17:29:19 78° ESE 17:34:33 12° NNE
Delta 168 4.3 17:29:33 10° SW 17:32:21 23° SSE 17:33:25 20° SE
Cosmos 2228 Rocket 4.5 17:29:55 10° SSE 17:31:59 22° SE 17:31:59 22° SE
Cosmos 2082 3.7 17:28:29 10° NNW 17:34:01 57° ENE 17:39:31 10° SE
Cosmos 1697 Rocket 3.3 17:29:44 10° SSW 17:35:17 58° WNW 17:40:52 10° NNE
Cosmos 2278 3.9 17:30:45 10° SSW 17:36:23 74° WNW 17:42:06 10° NNE
ATLAS 5 CENTAUR R/B 2.5 17:38:28 10° NNW 17:44:40 85° WSW 17:51:36 10° SSE
Cosmos 1862 3.5 17:41:46 10° NNW 17:45:43 69° W 17:49:40 10° S
Cosmos 1464 Rocket 4.5 17:46:59 10° NNW 17:53:01 60° W 17:59:01 10° S
Cosmos 1633 Rocket 3.7 17:52:51 10° NNW 17:57:10 56° W 18:01:29 10° S
Cosmos 1515 Rocket 3.9 18:01:05 10° SSW 18:05:28 65° W 18:07:01 38° NNW
NOAA 11 4.0 18:02:01 10° SSE 18:07:26 82° ENE 18:12:52 10° N
SeaSat 1 4.2 18:10:59 10° S 18:15:18 31° WSW 18:19:39 10° NW
ATLAS 5 CENTAUR R/B 3.9 18:12:06 10° SSW 18:14:07 20° S 18:14:07 20° S
DELTA 2 R/B (1) 4.0 18:20:37 10° SW 18:25:11 55° SSW 18:25:11 55° SSW
YAOGAN 1 4.3 18:22:46 10° SSW 18:26:36 31° W 18:30:27 10° NW
CZ-4 R/B 4.1 18:28:45 10° SW 18:31:45 19° W 18:34:44 10° NW
SL-16 R/B 3.8 18:27:12 10° S 18:29:15 23° S 18:29:15 23° S
Cosmos 1980 Rocket 3.8 18:34:38 10° WSW 18:39:33 30° WNW 18:42:22 20° NNW
Cosmos 2322 Rocket 4.3 18:37:23 10° S 18:38:16 15° S 18:38:16 15° S
H-II Stage 2 3.9 18:32:46 10° WSW 18:59:01 63° S 18:59:01 63° S
ATLAS 5 CENTAUR R/B 4.1 19:22:53 10° WSW 20:14:33 - ESE 19:29:27 45° S
